Weather History for Orlando, FL

Change the Weather History Date:

Saturday, November 17, 2012

  Actual Average Record
Temperature  
Mean Temperature 68 °F -  
Max Temperature 77 °F 75 °F 84 °F (1998)
Min Temperature 60 °F 58 °F 44 °F (1997)
Cooling Degree Days 4    
Growing Degree Days 18 (Base 50)    
Moisture  
Dew Point 59 °F    
Average Humidity 79    
Maximum Humidity 90    
Minimum Humidity 54    
Precipitation  
Precipitation 0.00 in - - ()
Sea Level Pressure  
Sea Level Pressure 30.15 in    
Wind  
Wind Speed 8 mph (North)    
Max Wind Speed 16 mph    
Max Gust Speed 23 mph    
Visibility 10 miles    
Events      
Averages and records for this station are not official NWS values.
T = Trace of Precipitation, MM = Missing Value Source: NWS Daily Summary

Daily Weather History Graph

Daily Weather History Graph

Search for Another Location

Airport:

Trip Planner

Search our weather history database for the weather conditions in past years. The results will help you decide how hot, cold, wet, or windy it might be!

Date:

Astronomy

Nov. 17, 2012 Rise Set
Actual Time 6:49 AM EST 5:30 PM EST
Civil Twilight 6:24 AM EST 5:55 PM EST
Nautical Twilight 5:56 AM EST 6:24 PM EST
Astronomical Twilight 5:28 AM EST 6:52 PM EST
Moon 10:33 AM EST (11/17) 9:37 PM EST (11/17)
Length of Visible Light 11h 31m
Length of Day
10h 40m
Waxing Crescent, 20% of the Moon is Illuminated
Nov 17
Waxing Crescent
Nov 20
First Quarter
Nov 28
Full
Dec 6
Last Quarter
Dec 13
New

Hourly Weather History & Observations

Time (EST) Temp. Dew Point Humidity Pressure Visibility Wind Dir Wind Speed Gust Speed Precip Events Conditions
12:53 AM 61.0 °F 57.0 °F 87% 30.15 in 8.0 mi North 9.2 mph - N/A   Overcast
1:53 AM 61.0 °F 57.0 °F 87% 30.14 in 8.0 mi North 8.1 mph - N/A   Overcast
2:42 AM 62.6 °F 57.2 °F 82% 30.12 in 8.0 mi North 9.2 mph - N/A   Overcast
2:53 AM 62.1 °F 57.9 °F 86% 30.13 in 9.0 mi North 10.4 mph - N/A   Overcast
3:38 AM 62.6 °F 57.2 °F 82% 30.12 in 9.0 mi North 6.9 mph - N/A   Overcast
3:45 AM 62.6 °F 57.2 °F 82% 30.12 in 9.0 mi North 6.9 mph - N/A   Overcast
3:53 AM 62.1 °F 57.9 °F 86% 30.13 in 9.0 mi North 5.8 mph - N/A   Overcast
4:31 AM 60.8 °F 57.2 °F 88% 30.12 in 10.0 mi North 5.8 mph - N/A   Overcast
4:49 AM 60.8 °F 57.2 °F 88% 30.13 in 10.0 mi North 5.8 mph - N/A   Overcast
4:53 AM 61.0 °F 57.0 °F 87% 30.14 in 10.0 mi North 6.9 mph - N/A   Overcast
5:10 AM 60.8 °F 57.2 °F 88% 30.13 in 10.0 mi North 5.8 mph - N/A   Overcast
5:23 AM 60.8 °F 57.2 °F 88% 30.13 in 10.0 mi North 5.8 mph - N/A   Overcast
5:35 AM 60.8 °F 57.2 °F 88% 30.15 in 9.0 mi Variable 3.5 mph - N/A   Overcast
5:44 AM 60.8 °F 57.2 °F 88% 30.15 in 9.0 mi Calm Calm - N/A   Overcast
5:53 AM 61.0 °F 57.9 °F 90% 30.16 in 9.0 mi NW 4.6 mph - N/A   Overcast
6:22 AM 60.8 °F 57.2 °F 88% 30.15 in 9.0 mi Calm Calm - N/A   Overcast
6:53 AM 61.0 °F 57.0 °F 87% 30.17 in 9.0 mi NNW 5.8 mph - N/A   Scattered Clouds
8:53 AM 66.0 °F 59.0 °F 78% 30.18 in 10.0 mi North 5.8 mph - N/A   Clear
9:53 AM 71.1 °F 59.0 °F 66% 30.18 in 10.0 mi NNW 5.8 mph - N/A   Clear
10:53 AM 72.0 °F 60.1 °F 66% 30.17 in 10.0 mi NNW 8.1 mph - N/A   Partly Cloudy
11:53 AM 75.9 °F 60.1 °F 58% 30.15 in 10.0 mi North 8.1 mph - N/A   Scattered Clouds
12:53 PM 75.9 °F 59.0 °F 56% 30.13 in 10.0 mi ENE 12.7 mph - N/A   Mostly Cloudy
1:53 PM 75.9 °F 60.1 °F 58% 30.11 in 10.0 mi NE 13.8 mph - N/A   Scattered Clouds
2:53 PM 77.0 °F 59.0 °F 54% 30.11 in 10.0 mi NNE 15.0 mph 20.7 mph N/A   Scattered Clouds
3:53 PM 73.9 °F 60.1 °F 62% 30.12 in 10.0 mi NE 9.2 mph - N/A   Mostly Cloudy
4:53 PM 70.0 °F 59.0 °F 68% 30.13 in 10.0 mi NNE 13.8 mph 23.0 mph N/A   Mostly Cloudy
5:53 PM 68.0 °F 60.1 °F 76% 30.15 in 10.0 mi North 10.4 mph - 0.00 in   Partly Cloudy
6:17 PM 68.0 °F 60.8 °F 78% 30.15 in 10.0 mi North 10.4 mph - N/A   Mostly Cloudy
6:53 PM 68.0 °F 60.1 °F 76% 30.17 in 10.0 mi North 12.7 mph 20.7 mph N/A   Overcast
7:53 PM 66.0 °F 60.1 °F 81% 30.18 in 10.0 mi NNE 13.8 mph 21.9 mph N/A   Overcast
8:53 PM 66.0 °F 60.1 °F 81% 30.18 in 10.0 mi North 16.1 mph - N/A   Overcast
9:22 PM 66.2 °F 59.0 °F 78% 30.17 in 10.0 mi North 8.1 mph - N/A   Overcast
9:31 PM 66.2 °F 60.8 °F 83% 30.18 in 10.0 mi North 13.8 mph 19.6 mph N/A   Overcast
9:44 PM 66.2 °F 60.8 °F 83% 30.18 in 10.0 mi North 15.0 mph - N/A   Overcast
9:53 PM 66.0 °F 60.1 °F 81% 30.19 in 10.0 mi North 11.5 mph - N/A   Overcast
10:18 PM 64.4 °F 60.8 °F 88% 30.18 in 10.0 mi North 10.4 mph - N/A   Overcast
10:53 PM 64.9 °F 60.1 °F 84% 30.18 in 10.0 mi North 11.5 mph - N/A   Mostly Cloudy
11:16 PM 64.4 °F 60.8 °F 88% 30.17 in 10.0 mi North 9.2 mph - N/A   Overcast
11:53 PM 64.9 °F 60.1 °F 84% 30.17 in 10.0 mi North 11.5 mph - N/A   Overcast